FFL1031 LOWI-LFRM

Flight info

Callsign FFL1031
Flight time N/A
Altitude 32000
Route KPT L856 TRA Z69 OLBEN DCT PEPAX UT182 KEPER
Aircraft E50P/L-SBDFGRWY/LB2

Departure

Time 2026-05-07 20:35
Airport Innsbruck Airport (LOWI)

Arrival

Time N/A
Airport Le Mans-Arnage Airport (LFRM)
Time Latitude Longitude Altitude Speed Heading
2026-05-07 20:24 47.25814 11.35052 1896 ft 0 kts 171°
2026-05-07 20:31 47.25813 11.35053 1896 ft 1 kts 162°
2026-05-07 20:31 47.25808 11.35075 1892 ft 6 kts 75°
2026-05-07 20:31 47.25861 11.35137 1896 ft 8 kts
2026-05-07 20:32 47.25872 11.35050 1896 ft 14 kts 262°
2026-05-07 20:32 47.25853 11.34869 1896 ft 21 kts 263°
2026-05-07 20:32 47.25831 11.34626 1896 ft 25 kts 261°
2026-05-07 20:32 47.25804 11.34371 1891 ft 26 kts 261°
2026-05-07 20:33 47.25776 11.34100 1894 ft 27 kts 262°
2026-05-07 20:33 47.25809 11.33882 1908 ft 13 kts 308°
2026-05-07 20:33 47.25856 11.33789 1911 ft 11 kts 306°
2026-05-07 20:33 47.25909 11.33678 1912 ft 18 kts 303°
2026-05-07 20:34 47.25929 11.33530 1910 ft 17 kts 261°
2026-05-07 20:34 47.25901 11.33302 1909 ft 26 kts 257°
2026-05-07 20:34 47.25841 11.33163 1909 ft 10 kts 259°
2026-05-07 20:34 47.25880 11.33148 1902 ft 8 kts 62°
2026-05-07 20:35 47.25898 11.33270 1909 ft 29 kts 79°
2026-05-07 20:35 47.25964 11.33874 1910 ft 87 kts 81°
2026-05-07 20:35 47.26086 11.34940 2050 ft 118 kts 79°
2026-05-07 20:35 47.26240 11.36193 2539 ft 129 kts 81°
2026-05-07 20:36 47.26416 11.37517 3176 ft 132 kts 77°
2026-05-07 20:36 47.26549 11.38868 3791 ft 135 kts 87°
2026-05-07 20:36 47.26642 11.40244 4400 ft 136 kts 79°
2026-05-07 20:36 47.26806 11.41628 4941 ft 139 kts 81°
2026-05-07 20:37 47.26944 11.43143 5292 ft 163 kts 81°
2026-05-07 20:37 47.27166 11.44927 5568 ft 190 kts 74°
2026-05-07 20:37 47.27670 11.46776 6190 ft 195 kts 66°
2026-05-07 20:37 47.28155 11.48613 6835 ft 196 kts 70°
2026-05-07 20:38 47.28631 11.50519 7415 ft 200 kts 71°
2026-05-07 20:38 47.28687 11.52541 7965 ft 203 kts 108°
2026-05-07 20:38 47.27849 11.54168 8549 ft 203 kts 148°
2026-05-07 20:38 47.26509 11.54671 9139 ft 202 kts 186°
2026-05-07 20:39 47.25244 11.53865 9751 ft 201 kts 222°
2026-05-07 20:39 47.24551 11.52112 10305 ft 202 kts 258°
2026-05-07 20:39 47.24707 11.50107 10837 ft 204 kts 290°
2026-05-07 20:39 47.25105 11.48117 11344 ft 204 kts 269°
2026-05-07 20:40 47.24673 11.46154 11876 ft 205 kts 243°
2026-05-07 20:40 47.24058 11.44253 12419 ft 206 kts 248°
2026-05-07 20:40 47.23552 11.42279 12990 ft 207 kts 250°
2026-05-07 20:40 47.23297 11.40200 13536 ft 208 kts 269°
2026-05-07 20:41 47.23496 11.38085 14071 ft 211 kts 285°
2026-05-07 20:41 47.23998 11.36052 14563 ft 212 kts 288°
2026-05-07 20:41 47.24457 11.33986 15060 ft 213 kts 286°
2026-05-07 20:41 47.24940 11.31920 15566 ft 214 kts 288°
2026-05-07 20:42 47.25434 11.29844 16077 ft 215 kts 287°
2026-05-07 20:42 47.25924 11.27753 16601 ft 217 kts 287°
2026-05-07 20:42 47.26418 11.25651 17103 ft 218 kts 287°
2026-05-07 20:42 47.26913 11.23528 17633 ft 220 kts 287°
2026-05-07 20:43 47.27413 11.21395 18157 ft 221 kts 287°
2026-05-07 20:43 47.27910 11.19264 18628 ft 223 kts 287°
2026-05-07 20:43 47.28424 11.17066 19099 ft 225 kts 287°
2026-05-07 20:43 47.28925 11.14906 19566 ft 226 kts 287°
2026-05-07 20:44 47.29439 11.12711 20043 ft 227 kts 287°
2026-05-07 20:44 47.29952 11.10495 20521 ft 229 kts 287°
2026-05-07 20:45 47.30518 11.08071 21055 ft 231 kts 287°
2026-05-07 20:45 47.31037 11.05826 21548 ft 232 kts 287°
2026-05-07 20:45 47.31563 11.03564 22043 ft 234 kts 287°
2026-05-07 20:45 47.32089 11.01288 22548 ft 235 kts 287°
2026-05-07 20:46 47.32621 10.98996 23061 ft 237 kts 287°
2026-05-07 20:46 47.32973 10.97468 23398 ft 238 kts 287°
2026-05-07 20:46 47.33511 10.95144 23858 ft 241 kts 288°
2026-05-07 20:46 47.34049 10.92811 24307 ft 241 kts 287°
2026-05-07 20:47 47.34765 10.89707 24931 ft 241 kts 287°
2026-05-07 20:47 47.35129 10.88123 25250 ft 241 kts 287°
2026-05-07 20:47 47.35669 10.85777 25710 ft 242 kts 287°
2026-05-07 20:47 47.36210 10.83420 26172 ft 243 kts 287°
2026-05-07 20:48 47.36745 10.81091 26609 ft 243 kts 287°
2026-05-07 20:48 47.37286 10.78729 27072 ft 243 kts 287°
2026-05-07 20:48 47.37831 10.76355 27549 ft 244 kts 287°
2026-05-07 20:48 47.38432 10.74003 28001 ft 247 kts 294°
2026-05-07 20:49 47.39368 10.71863 28490 ft 250 kts 304°
2026-05-07 20:49 47.40589 10.70010 28948 ft 254 kts 315°
2026-05-07 20:49 47.42049 10.68474 29308 ft 259 kts 321°
2026-05-07 20:49 47.43534 10.66955 29767 ft 260 kts 319°
2026-05-07 20:50 47.45021 10.65422 30156 ft 262 kts 320°
2026-05-07 20:50 47.46527 10.63887 30467 ft 263 kts 320°
2026-05-07 20:50 47.48037 10.62341 30828 ft 265 kts 320°
2026-05-07 20:50 47.49556 10.60786 31165 ft 267 kts 320°
2026-05-07 20:51 47.51068 10.59237 31495 ft 268 kts 319°
2026-05-07 20:51 47.52608 10.57653 31808 ft 270 kts 319°
2026-05-07 20:51 47.54158 10.56063 32067 ft 273 kts 319°
2026-05-07 20:51 47.55749 10.54424 32076 ft 284 kts 319°
2026-05-07 20:52 47.57403 10.52718 32084 ft 294 kts 320°
2026-05-07 20:52 47.60876 10.49149 32085 ft 312 kts 320°
2026-05-07 20:53 47.64521 10.45389 32087 ft 325 kts 320°
2026-05-07 20:53 47.68280 10.41506 32085 ft 336 kts 321°
2026-05-07 20:54 47.71634 10.36713 32086 ft 337 kts 303°
2026-05-07 20:54 47.72497 10.34743 32087 ft 337 kts 297°
2026-05-07 20:55 47.74065 10.28590 32083 ft 340 kts 281°
2026-05-07 20:55 47.74277 10.21564 32082 ft 343 kts 268°
2026-05-07 20:56 47.74133 10.14435 32083 ft 347 kts 268°
2026-05-07 20:56 47.73958 10.07249 32083 ft 349 kts 268°
2026-05-07 20:57 47.73788 10.00050 32081 ft 351 kts 268°
2026-05-07 20:57 47.73610 9.92769 32073 ft 353 kts 268°
2026-05-07 20:58 47.73427 9.85455 32067 ft 354 kts 268°
2026-05-07 20:58 47.73238 9.78133 32064 ft 355 kts 268°
2026-05-07 20:59 47.73045 9.70784 32062 ft 356 kts 268°
2026-05-07 20:59 47.72846 9.63425 32059 ft 357 kts 268°
2026-05-07 21:00 47.72642 9.56048 32057 ft 357 kts 268°
2026-05-07 21:00 47.72434 9.48719 32057 ft 357 kts 268°
2026-05-07 21:01 47.72227 9.41545 32058 ft 357 kts 267°
2026-05-07 21:01 47.72010 9.34167 32084 ft 358 kts 267°
2026-05-07 21:02 47.71787 9.26785 32079 ft 358 kts 267°
2026-05-07 21:02 47.71559 9.19406 32072 ft 358 kts 267°
2026-05-07 21:03 47.71326 9.12009 32070 ft 358 kts 267°
2026-05-07 21:03 47.71090 9.04673 32068 ft 358 kts 267°
2026-05-07 21:04 47.70848 8.97277 32069 ft 358 kts 267°
2026-05-07 21:04 47.70602 8.89897 32068 ft 358 kts 267°
2026-05-07 21:05 47.70350 8.82510 32072 ft 358 kts 267°
2026-05-07 21:05 47.70094 8.75117 32074 ft 358 kts 267°
2026-05-07 21:06 47.69843 8.68008 32074 ft 359 kts 266°
2026-05-07 21:06 47.69605 8.61425 32073 ft 359 kts 266°
2026-05-07 21:07 47.69371 8.54994 32075 ft 359 kts 266°
2026-05-07 21:07 47.69092 8.48485 32072 ft 359 kts 263°
2026-05-07 21:08 47.67862 8.42149 32064 ft 360 kts 248°
2026-05-07 21:08 47.65597 8.36592 32064 ft 362 kts 236°
2026-05-07 21:09 47.63136 8.31347 32062 ft 362 kts 238°
2026-05-07 21:09 47.60420 8.25606 32060 ft 362 kts 237°
2026-05-07 21:10 47.57545 8.19533 32055 ft 362 kts 237°
2026-05-07 21:10 47.54650 8.13431 32058 ft 362 kts 237°
2026-05-07 21:11 47.51750 8.07333 32052 ft 362 kts 237°
2026-05-07 21:11 47.47398 7.98207 32043 ft 362 kts 237°
2026-05-07 21:12 47.44497 7.92144 32043 ft 361 kts 237°
2026-05-07 21:12 47.41593 7.86083 32048 ft 361 kts 237°
2026-05-07 21:13 47.40279 7.81191 32041 ft 357 kts 263°
2026-05-07 21:13 47.40297 7.77537 32044 ft 357 kts 275°
2026-05-07 21:13 47.40696 7.73966 32052 ft 357 kts 279°
2026-05-07 21:14 47.41369 7.66701 32058 ft 357 kts 275°
2026-05-07 21:14 47.41969 7.59424 32065 ft 357 kts 276°
2026-05-07 21:15 47.42597 7.52138 32069 ft 358 kts 276°
2026-05-07 21:15 47.43208 7.44843 32070 ft 358 kts 276°
2026-05-07 21:16 47.43818 7.37544 32074 ft 358 kts 276°
2026-05-07 21:16 47.44419 7.30295 32071 ft 358 kts 276°
2026-05-07 21:17 47.45020 7.22991 32067 ft 358 kts 276°
2026-05-07 21:17 47.45618 7.15659 32065 ft 358 kts 276°
2026-05-07 21:18 47.46210 7.08348 32059 ft 358 kts 275°
2026-05-07 21:18 47.46798 7.01022 32055 ft 358 kts 275°
2026-05-07 21:19 47.47380 6.93707 32057 ft 358 kts 275°
2026-05-07 21:19 47.47937 6.86429 32056 ft 359 kts 275°
2026-05-07 21:20 47.48458 6.79094 32057 ft 359 kts 275°
2026-05-07 21:20 47.48993 6.71751 32058 ft 358 kts 275°
2026-05-07 21:21 47.49514 6.64417 32057 ft 359 kts 275°
2026-05-07 21:21 47.50035 6.57084 32055 ft 359 kts 275°
2026-05-07 21:22 47.50547 6.49782 32054 ft 359 kts 274°
2026-05-07 21:22 47.51059 6.42427 32051 ft 359 kts 274°
2026-05-07 21:23 47.51565 6.35071 32051 ft 359 kts 274°
2026-05-07 21:23 47.52067 6.27716 32052 ft 359 kts 274°
2026-05-07 21:24 47.52564 6.20364 32052 ft 360 kts 274°
2026-05-07 21:24 47.53054 6.13046 32049 ft 360 kts 274°
2026-05-07 21:25 47.53543 6.05660 32052 ft 360 kts 274°
2026-05-07 21:25 47.54027 5.98274 32049 ft 360 kts 274°
2026-05-07 21:26 47.54508 5.90879 32051 ft 361 kts 274°
2026-05-07 21:26 47.54984 5.83488 32055 ft 361 kts 274°
2026-05-07 21:27 47.55452 5.76135 32058 ft 361 kts 274°
2026-05-07 21:27 47.55919 5.68726 32056 ft 361 kts 274°
2026-05-07 21:28 47.56382 5.61315 32058 ft 361 kts 274°
2026-05-07 21:28 47.56838 5.53896 32059 ft 361 kts 274°
2026-05-07 21:29 47.57289 5.46529 32063 ft 361 kts 274°
2026-05-07 21:29 47.57737 5.39100 32061 ft 362 kts 274°
2026-05-07 21:30 47.58181 5.31676 32063 ft 362 kts 273°
2026-05-07 21:30 47.58620 5.24237 32063 ft 362 kts 273°
2026-05-07 21:31 47.59053 5.16837 32065 ft 362 kts 273°
2026-05-07 21:31 47.59483 5.09396 32065 ft 362 kts 273°
2026-05-07 21:32 47.59909 5.01946 32065 ft 363 kts 273°
2026-05-07 21:32 47.60330 4.94482 32066 ft 363 kts 273°
2026-05-07 21:33 47.60746 4.87019 32071 ft 363 kts 273°
2026-05-07 21:33 47.61154 4.79613 32067 ft 363 kts 273°
2026-05-07 21:34 47.61561 4.72142 32069 ft 363 kts 273°
2026-05-07 21:34 47.61963 4.64667 32071 ft 364 kts 273°
2026-05-07 21:35 47.62361 4.57188 32065 ft 364 kts 273°
2026-05-07 21:35 47.62689 4.50968 32065 ft 364 kts 272°
2026-05-07 21:36 47.63078 4.43473 32067 ft 364 kts 272°
2026-05-07 21:36 47.63463 4.35982 32065 ft 364 kts 272°
2026-05-07 21:37 47.63842 4.28484 32067 ft 365 kts 272°
2026-05-07 21:37 47.64214 4.21033 32065 ft 365 kts 272°
2026-05-07 21:38 47.64585 4.13528 32066 ft 365 kts 272°
2026-05-07 21:38 47.64950 4.06015 32068 ft 365 kts 272°
2026-05-07 21:39 47.65312 3.98489 32063 ft 365 kts 272°
2026-05-07 21:39 47.65668 3.90971 32061 ft 366 kts 272°
2026-05-07 21:40 47.66020 3.83443 32056 ft 366 kts 272°
2026-05-07 21:40 47.66366 3.75913 32059 ft 366 kts 272°
2026-05-07 21:41 47.66706 3.68407 32057 ft 367 kts 272°
2026-05-07 21:41 47.67045 3.60853 32060 ft 367 kts 272°
2026-05-07 21:42 47.67378 3.53294 32059 ft 367 kts 271°
2026-05-07 21:42 47.67706 3.45732 32056 ft 367 kts 271°
2026-05-07 21:43 47.68029 3.38166 32057 ft 368 kts 271°
2026-05-07 21:43 47.68348 3.30599 32054 ft 368 kts 271°
2026-05-07 21:44 47.68662 3.23012 32050 ft 368 kts 271°
2026-05-07 21:44 47.68970 3.15436 32049 ft 368 kts 271°
2026-05-07 21:45 47.69275 3.07840 32049 ft 368 kts 271°
2026-05-07 21:45 47.69573 3.00248 32049 ft 368 kts 271°
2026-05-07 21:46 47.69867 2.92692 32051 ft 369 kts 271°
2026-05-07 21:46 47.70156 2.85091 32047 ft 369 kts 271°
2026-05-07 21:47 47.70440 2.77490 32054 ft 369 kts 271°
2026-05-07 21:47 47.70720 2.69886 32052 ft 369 kts 271°
2026-05-07 21:48 47.70995 2.62267 32051 ft 369 kts 271°
2026-05-07 21:48 47.71265 2.54649 32050 ft 370 kts 270°
2026-05-07 21:49 47.71531 2.47003 31756 ft 371 kts 270°
2026-05-07 21:49 47.71662 2.43175 31277 ft 370 kts 270°
2026-05-07 21:49 47.71792 2.39390 30790 ft 364 kts 270°
2026-05-07 21:50 47.71917 2.35670 30317 ft 358 kts 270°
2026-05-07 21:50 47.72037 2.32055 29823 ft 352 kts 270°
2026-05-07 21:50 47.72157 2.28401 29353 ft 346 kts 270°
2026-05-07 21:50 47.72273 2.24864 28899 ft 340 kts 270°
2026-05-07 21:51 47.72385 2.21428 28460 ft 335 kts 270°
2026-05-07 21:51 47.72494 2.17996 28021 ft 330 kts 270°
2026-05-07 21:51 47.72600 2.14612 27589 ft 327 kts 270°
2026-05-07 21:51 47.72707 2.11262 27159 ft 323 kts 270°
2026-05-07 21:52 47.72811 2.07930 26734 ft 325 kts 270°
2026-05-07 21:52 47.72913 2.04550 26303 ft 329 kts 270°
2026-05-07 21:52 47.73018 2.01137 25867 ft 333 kts 270°
2026-05-07 21:52 47.73123 1.97661 25418 ft 337 kts 270°
2026-05-07 21:53 47.73227 1.94175 24973 ft 340 kts 270°
2026-05-07 21:53 47.73333 1.90635 24517 ft 344 kts 270°
2026-05-07 21:53 47.73437 1.87073 24063 ft 345 kts 270°
2026-05-07 21:53 47.73541 1.83584 23611 ft 340 kts 270°
2026-05-07 21:54 47.73640 1.80099 23123 ft 335 kts 270°
2026-05-07 21:54 47.73738 1.76671 22677 ft 329 kts 270°
2026-05-07 21:54 47.73832 1.73305 22252 ft 324 kts 270°
2026-05-07 21:54 47.73925 1.69978 21813 ft 320 kts 270°
2026-05-07 21:55 47.74017 1.66673 21399 ft 316 kts 269°
2026-05-07 21:55 47.74104 1.63420 20982 ft 314 kts 269°
2026-05-07 21:55 47.74191 1.60196 20569 ft 311 kts 269°
2026-05-07 21:55 47.74277 1.57002 20162 ft 309 kts 269°
2026-05-07 21:56 47.74362 1.53818 19756 ft 307 kts 269°
2026-05-07 21:56 47.74443 1.50663 19351 ft 305 kts 269°
2026-05-07 21:56 47.74524 1.47555 18956 ft 304 kts 269°
2026-05-07 21:56 47.74604 1.44416 18556 ft 303 kts 269°
2026-05-07 21:57 47.74683 1.41293 18134 ft 302 kts 269°
2026-05-07 21:57 47.74762 1.38193 17725 ft 299 kts 269°
2026-05-07 21:57 47.74838 1.35106 17316 ft 298 kts 269°
2026-05-07 21:57 47.74913 1.32038 16921 ft 296 kts 269°
2026-05-07 21:58 47.74987 1.28990 16532 ft 294 kts 270°
2026-05-07 21:58 47.75060 1.25964 16144 ft 293 kts 269°
2026-05-07 21:58 47.75131 1.22946 15757 ft 292 kts 269°
2026-05-07 21:58 47.75202 1.19941 15377 ft 291 kts 270°
2026-05-07 21:59 47.75271 1.16943 14996 ft 290 kts 270°
2026-05-07 21:59 47.75339 1.13953 14613 ft 289 kts 270°
2026-05-07 21:59 47.75409 1.10974 14233 ft 288 kts 270°
2026-05-07 21:59 47.75474 1.07998 13854 ft 288 kts 270°
2026-05-07 22:00 47.75538 1.05063 13454 ft 287 kts 270°
2026-05-07 22:00 47.75605 1.02107 13071 ft 285 kts 270°
2026-05-07 22:00 47.75668 0.99169 12693 ft 283 kts 270°
2026-05-07 22:00 47.75731 0.96260 12322 ft 281 kts 270°
2026-05-07 22:01 47.75792 0.93363 11949 ft 279 kts 270°
2026-05-07 22:01 47.75851 0.90493 11585 ft 277 kts 270°
2026-05-07 22:01 47.75910 0.87638 11222 ft 275 kts 270°
2026-05-07 22:01 47.75969 0.84798 10845 ft 274 kts 270°
2026-05-07 22:02 47.76025 0.81969 10488 ft 272 kts 270°
2026-05-07 22:02 47.76082 0.79166 10131 ft 270 kts 271°
2026-05-07 22:02 47.76135 0.76380 9768 ft 269 kts 271°
2026-05-07 22:02 47.76190 0.73614 9408 ft 267 kts 271°
2026-05-07 22:03 47.76244 0.70865 9051 ft 265 kts 271°
2026-05-07 22:03 47.76293 0.68172 8713 ft 264 kts 271°
2026-05-07 22:03 47.76344 0.65448 8360 ft 263 kts 271°
2026-05-07 22:03 47.76395 0.62730 8010 ft 263 kts 271°
2026-05-07 22:04 47.76445 0.60015 7664 ft 262 kts 271°